Location: *
(53.9002°N, 27.5624°E)
Time: 09:46:31
(UTC+00:00)

NOAA 12 - Pass Details

Date: 12 November 2019
Orbit: 795 x 815 km, 98.5° (Epoch: 06 December)

Event Time Altitude Azimuth Distance (km) Brightness Sun altitude
Rises 15:36:48 0° 160° (SSE) 3,331 7.2 -11.8°
Reaches altitude 10° 15:39:08 10° 160° (SSE) 2,404 6.5 -12.1°
Maximum altitude 15:44:28 85° 73° (ENE) 827 4.1 -12.9°
Drops below altitude 10° 15:49:51 10° 345° (NNW) 2,419 6.6 -13.7°
Sets 15:52:12 0° 345° (NNW) 3,354 7.4 -14.0°
